Hourly Data Report for October 15, 2014

All times are specified in Local Standard Time (LST). Add 1 hour to adjust for Daylight Saving Time where and when it is observed.

OTTAWA INTL A
ONTARIO

45°19'00.000" N
75°40'00.000" W
114.90 m
6106001
71628
YOW

Download Data

Hourly Data (October 2014)
Hourly Data Report for October 15, 2014
Temp Definition
°C
Dew Point Temp Definition
°C
Rel Hum Definition
%
Wind Dir Definition
10's deg

Wind Spd Definition
km/h
Visibility Definition
km
Stn Press Definition
kPa
Hmdx Definition


Wind Chill Definition


Weather Definition


TIME
00:00 Legend Double Dagger 18.9 15.6 81 14 11 24.1 99.86     LegendNANA
01:00 Legend Double Dagger 18.8 15.7 82 15 10 24.1 99.90     Cloudy
02:00 Legend Double Dagger 19.2 15.7 80 16 12 24.1 99.91     LegendNANA
03:00 Legend Double Dagger 18.7 16.2 85 16 9 24.1 99.88     Rain
04:00 Legend Double Dagger 17.5 16.2 92 12 9 24.1 99.90     Cloudy
05:00 Legend Double Dagger 17.4 16.4 94 12 10 24.1 99.90     Rain
06:00 Legend Double Dagger 17.1 16.5 96 8 8 24.1 99.93     Rain
07:00 Legend Double Dagger 16.9 16.3 96 7 8 24.1 99.93     Rain
08:00 Legend Double Dagger 17.9 16.9 94 10 13 24.1 99.90     LegendNANA
09:00 Legend Double Dagger 19.1 17.5 90 11 15 24.1 99.88     LegendNANA
10:00 Legend Double Dagger 20.5 17.8 84 12 16 24.1 99.81 26   Cloudy
11:00 Legend Double Dagger 21.7 18.2 80 13 10 24.1 99.79 28   LegendNANA
12:00 Legend Double Dagger 22.9 17.7 72 17 13 24.1 99.75 29   Rain
13:00 Legend Double Dagger 23.0 17.8 72 17 8 24.1 99.71 29   Rain
14:00 Legend Double Dagger 22.6 18.4 77 27 7 24.1 99.68 29   Rain
15:00 Legend Double Dagger 21.6 19.4 87 35 6 24.1 99.69 29   LegendNANA
16:00 Legend Double Dagger 21.4 19.0 86 4 13 24.1 99.67 28   Cloudy
17:00 Legend Double Dagger 21.2 18.3 83 18 17 16.1 99.76 27   LegendNANA
18:00 Legend Double Dagger 19.5 17.8 90 20 10 16.1 99.80     LegendNANA
19:00 Legend Double Dagger 18.8 17.0 89 21 5 24.1 99.80     Cloudy
20:00 Legend Double Dagger 17.3 16.3 94 14 7 24.1 99.77     Rain
21:00 Legend Double Dagger 17.6 16.6 94 11 10 24.1 99.76     Rain
22:00 Legend Double Dagger 17.5 16.7 95 9 12 24.1 99.66     Rain
23:00 Legend Double Dagger 17.2 16.7 97 10 14 24.1 99.61     LegendNANA

Notes on Data Quality.

Legend

  • E = Estimated
  • M = Missing
  • NA = Not Available
  • ‡ = Partner data that is not subject to review by the National Climate Archives
Date modified: